Surface/Precipitation History
02/25/2017 02:57  to  2/26/2017 02:57
Change End Date:
Date/Time
(MST)
Sf
Temp Chem Water Layer Surface Precipitation
Sfc Pvt Sub Frz Factor Pct Dpth DpthThk IcePct Cond Salin FI Type Intens Accum Rate
02/26/2017 02:56 Dry 18.3F - 30F - - - - - - 0 mhos 128 - None None - -
02/26/2017 02:55 Dry 18.3F - 30F - - - - - - 0 mhos 128 - None None - -
02/26/2017 02:45 Dry 18.3F - 30F - - - - - - 0 mhos 127 - None None - -
02/26/2017 02:41 Dry 18.1F - 30F - - - - - - 0 mhos 126 - None None - -
02/26/2017 02:35 Dry 18.0F - 30F - - - - - - 0 mhos 126 - None None - -
02/26/2017 02:26 Dry 17.6F - 30F - - - - - - 0 mhos 124 - None None - -
02/26/2017 02:25 Dry 17.4F - 30F - - - - - - 0 mhos 124 - None None - -
02/26/2017 02:15 Dry 17.1F - 30F - - - - - - 0 mhos 123 - None None - -
02/26/2017 02:11 Dry 17.1F - 30F - - - - - - 0 mhos 123 - None None - -
02/26/2017 02:05 Dry 16.9F - 30F - - - - - - 0 mhos 124 - None None - -
02/26/2017 01:56 Dry 16.9F - 30F - - - - - - 0 mhos 124 - None None - -
02/26/2017 01:55 Dry 17.1F - 30F - - - - - - 0 mhos 124 - None None - -
02/26/2017 01:44 Dry 17.2F - 31F - - - - - - 0 mhos 125 - None None - -
02/26/2017 01:41 Dry 17.4F - 31F - - - - - - 0 mhos 125 - None None - -
02/26/2017 01:34 Dry 18.0F - 31F - - - - - - 0 mhos 126 - None None - -
Date/Time
(MST)
Sf
Temp Chem Water Layer Surface Precipitation
Sfc Pvt Sub Frz Factor Pct Dpth DpthThk IcePct Cond Salin FI Type Intens Accum Rate
02/26/2017 01:26 Dry 18.3F - 31F - - - - - - 0 mhos 130 - None None - -
02/26/2017 01:24 Dry 18.3F - 31F - - - - - - 0 mhos 130 - None None - -
02/26/2017 01:14 Dry 18.3F - 31F - - - - - - 0 mhos 129 - None None - -
02/26/2017 01:11 Dry 18.3F - 31F - - - - - - 0 mhos 130 - None None - -
02/26/2017 01:04 Dry 18.3F - 31F - - - - - - 0 mhos 131 - None None - -
02/26/2017 00:56 Dry 18.1F - 31F - - - - - - 0 mhos 133 - None None - -
02/26/2017 00:54 Dry 18.1F - 31F - - - - - - 0 mhos 132 - None None - -
02/26/2017 00:44 Dry 18.1F - 31F - - - - - - 0 mhos 133 - None None - -
02/26/2017 00:41 Dry 18.0F - 31F - - - - - - 0 mhos 133 - None None - -
02/26/2017 00:34 Dry 18.0F - 31F - - - - - - 0 mhos 133 - None None - -
02/26/2017 00:26 Dry 17.8F - 31F - - - - - - 0 mhos 135 - None None - -
02/26/2017 00:24 Dry 18.0F - 31F - - - - - - 0 mhos 134 - None None - -
02/26/2017 00:14 Dry 17.8F - 31F - - - - - - 0 mhos 135 - None None - -
02/26/2017 00:11 Dry 17.8F - 31F - - - - - - 0 mhos 135 - None None - -
02/26/2017 00:04 Dry 17.6F - 31F - - - - - - 0 mhos 135 - None None - -
Date/Time
(MST)
Sf
Temp Chem Water Layer Surface Precipitation
Sfc Pvt Sub Frz Factor Pct Dpth DpthThk IcePct Cond Salin FI Type Intens Accum Rate
02/25/2017 23:56 Dry 18.0F - 31F - - - - - - 0 mhos 137 - None None - -
02/25/2017 23:54 Dry 17.8F - 31F - - - - - - 0 mhos 137 - None None - -
02/25/2017 23:44 Dry 18.0F - 31F - - - - - - 0 mhos 138 - None None - -
02/25/2017 23:41 Dry 18.0F - 31F - - - - - - 0 mhos 140 - None None - -
02/25/2017 23:34 Dry 18.0F - 31F - - - - - - 0 mhos 140 - None None - -
02/25/2017 23:26 Dry 18.0F - 31F - - - - - - 0 mhos 143 - None None - -
02/25/2017 23:24 Dry 18.0F - 31F - - - - - - 0 mhos 145 - None None - -
02/25/2017 23:14 Dry 18.1F - 31F - - - - - - 0 mhos 145 - None None - -
02/25/2017 23:11 Dry 18.3F - 31F - - - - - - 0 mhos 147 - None None - -
02/25/2017 23:04 Dry 18.3F - 31F - - - - - - 0 mhos 150 - None None - -
02/25/2017 22:56 Dry 18.5F - 31F - - - - - - 1 mhos 153 - None None - -
02/25/2017 22:54 Dry 18.3F - 31F - - - - - - 0 mhos 155 - None None - -
02/25/2017 22:44 Dry 18.9F - 31F - - - - - - 1 mhos 156 - None None - -
02/25/2017 22:41 Dry 18.9F - 31F - - - - - - 1 mhos 158 - None None - -
02/25/2017 22:34 Dry 19.0F - 31F - - - - - - 1 mhos 156 - None None - -
Date/Time
(MST)
Sf
Temp Chem Water Layer Surface Precipitation
Sfc Pvt Sub Frz Factor Pct Dpth DpthThk IcePct Cond Salin FI Type Intens Accum Rate
02/25/2017 22:26 Dry 19.0F - 31F - - - - - - 1 mhos 162 - None None - -
02/25/2017 22:24 Dry 19.2F - 31F - - - - - - 1 mhos 161 - None None - -
02/25/2017 22:14 Dry 19.2F - 31F - - - - - - 1 mhos 165 - None None - -
02/25/2017 22:11 Dry 19.2F - 31F - - - - - - 1 mhos 163 - None None - -
02/25/2017 22:04 Dry 19.2F - 31F - - - - - - 1 mhos 165 - None None - -
02/25/2017 21:56 Dry 19.2F - 31F - - - - - - 1 mhos 169 - None None - -
02/25/2017 21:54 Dry 19.2F - 31F - - - - - - 1 mhos 166 - None None - -
02/25/2017 21:44 Dry 19.2F - 31F - - - - - - 1 mhos 167 - None None - -
02/25/2017 21:41 Dry 19.2F - 31F - - - - - - 1 mhos 169 - None None - -
02/25/2017 21:33 Dry 19.2F - 31F - - - - - - 1 mhos 171 - None None - -
02/25/2017 21:26 Dry 19.2F - 31F - - - - - - 1 mhos 174 - None None - -
02/25/2017 21:23 Dry 19.0F - 31F - - - - - - 1 mhos 175 - None None - -
02/25/2017 21:13 Dry 19.2F - 31F - - - - - - 1 mhos 180 - None None - -
02/25/2017 21:11 Dry 19.4F - 31F - - - - - - 1 mhos 180 - None None - -
02/25/2017 21:03 Dry 19.4F - 31F - - - - - - 1 mhos 184 - None None - -
Date/Time
(MST)
Sf
Temp Chem Water Layer Surface Precipitation
Sfc Pvt Sub Frz Factor Pct Dpth DpthThk IcePct Cond Salin FI Type Intens Accum Rate
02/25/2017 20:56 Dry 19.8F - 31F - - - - - - 1 mhos 182 - None None - -
02/25/2017 20:53 Dry 19.4F - 31F - - - - - - 1 mhos 185 - None None - -
02/25/2017 20:43 Dry 19.4F - 31F - - - - - - 1 mhos 188 - None None - -
02/25/2017 20:41 Dry 19.4F - 31F - - - - - - 1 mhos 189 - None None - -
02/25/2017 20:33 Dry 19.6F - 31F - - - - - - 1 mhos 190 - None None - -
02/25/2017 20:26 Dry 19.2F - 31F - - - - - - 1 mhos 193 - None None - -
02/25/2017 20:23 Dry 19.2F - 31F - - - - - - 1 mhos 195 - None None - -
02/25/2017 20:13 Dry 19.2F - 31F - - - - - - 1 mhos 192 - None None - -
02/25/2017 20:11 Dry 19.0F - 31F - - - - - - 1 mhos 196 - None None - -
02/25/2017 20:03 Dry 19.4F - 31F - - - - - - 1 mhos 194 - None None - -
02/25/2017 19:56 Dry 19.4F - 31F - - - - - - 1 mhos 196 - None None - -
02/25/2017 19:53 Dry 19.8F - 31F - - - - - - 1 mhos 194 - None None - -
02/25/2017 19:43 Dry 20.1F - 31F - - - - - - 1 mhos 190 - None None - -
02/25/2017 19:41 Dry 20.3F - 31F - - - - - - 1 mhos 190 - None None - -
02/25/2017 19:33 Dry 20.8F - 31F - - - - - - 1 mhos 190 - None None - -
Date/Time
(MST)
Sf
Temp Chem Water Layer Surface Precipitation
Sfc Pvt Sub Frz Factor Pct Dpth DpthThk IcePct Cond Salin FI Type Intens Accum Rate
02/25/2017 19:26 Dry 20.8F - 31F - - - - - - 1 mhos 190 - None None - -
02/25/2017 19:23 Dry 21.2F - 31F - - - - - - 1 mhos 187 - None None - -
02/25/2017 19:13 Dry 21.4F - 31F - - - - - - 1 mhos 191 - None None - -
02/25/2017 19:12 Dry 21.4F - 31F - - - - - - 1 mhos 189 - None None - -
02/25/2017 19:03 Dry 21.0F - 31F - - - - - - 1 mhos 190 - None None - -
02/25/2017 18:56 Dry 21.2F - 31F - - - - - - 1 mhos 185 - None None - -
02/25/2017 18:53 Dry 21.6F - 31F - - - - - - 1 mhos 183 - None None - -
02/25/2017 18:43 Dry 22.1F - 31F - - - - - - 1 mhos 178 - None None - -
02/25/2017 18:41 Dry 21.9F - 31F - - - - - - 1 mhos 180 - None None - -
02/25/2017 18:33 Dry 22.6F - 31F - - - - - - 1 mhos 178 - None None - -
02/25/2017 18:26 Dry 22.8F - 31F - - - - - - 1 mhos 177 - None None - -
02/25/2017 18:23 Dry 22.8F - 31F - - - - - - 1 mhos 177 - None None - -
02/25/2017 18:13 Ice Watch 22.6F - 31F - 5 - - - - 1 mhos 178 - None None - -
02/25/2017 18:11 Ice Watch 22.6F - 31F - 5 - - - - 1 mhos 177 - None None - -
02/25/2017 18:03 Ice Watch 23.5F - 31F - 10 - - - - 1 mhos 184 - None None - -
Date/Time
(MST)
Sf
Temp Chem Water Layer Surface Precipitation
Sfc Pvt Sub Frz Factor Pct Dpth DpthThk IcePct Cond Salin FI Type Intens Accum Rate
02/25/2017 17:56 Ice Watch 23.4F - 31F - 5 - - - - 1 mhos 175 - None None - -
02/25/2017 17:53 Ice Watch 23.4F - 31F - 5 - - - - 1 mhos 174 - None None - -
02/25/2017 17:43 Ice Watch 23.5F - 31F - 15 - - - - 1 mhos 179 - None None - -
02/25/2017 17:41 Ice Watch 23.5F - 31F - 50 - - - - 1 mhos 183 - None None - -
02/25/2017 17:33 Ice Watch 23.5F - 31F - 95 - - - - 1 mhos 198 - None None - -
02/25/2017 17:26 Ice Watch 23.5F - 31F - 90 - - - - 1 mhos 194 - None None - -
02/25/2017 17:22 Ice Watch 23.9F - 31F - 95 - - - - 1 mhos 190 - None None - -
02/25/2017 17:12 Ice Watch 24.3F - 31F - 95 - - - - 1 mhos 184 - None None - -
02/25/2017 17:11 Ice Watch 24.4F - 31F - 95 - - - - 1 mhos 190 - None None - -
02/25/2017 17:02 Ice Watch 24.6F - 31F - 95 - - - - 1 mhos 198 - None None - -
02/25/2017 16:56 Ice Watch 24.6F - 31F - 95 - - - - 1 mhos 197 - None None - -
02/25/2017 16:52 Ice Watch 24.6F - 31F - 95 - - - - 1 mhos 194 - None None - -
02/25/2017 16:42 Ice Watch 25.7F - 31F - 95 - - - - 1 mhos 192 - None None - -
02/25/2017 16:41 Ice Watch 25.9F - 31F - 95 - - - - 1 mhos 191 - None None - -
02/25/2017 16:32 Ice Watch 26.1F - 31F - 95 - - - - 1 mhos 171 - None None - -
Date/Time
(MST)
Sf
Temp Chem Water Layer Surface Precipitation
Sfc Pvt Sub Frz Factor Pct Dpth DpthThk IcePct Cond Salin FI Type Intens Accum Rate
02/25/2017 16:26 Ice Watch 26.2F - 31F - 95 - - - - 1 mhos 161 - None None - -
02/25/2017 16:22 Ice Watch 26.2F - 31F - 95 - - - - 1 mhos 158 - None None - -
02/25/2017 16:12 Ice Watch 26.2F - 31F - 95 - - - - 1 mhos 151 - None None - -
02/25/2017 16:11 Ice Watch 26.2F - 31F - 95 - - - - 1 mhos 148 - None None - -
02/25/2017 16:02 Ice Watch 26.8F - 31F - 95 - - - - 1 mhos 158 - None None - -
02/25/2017 15:56 Ice Watch 28.0F - 31F - 95 - - - - 1 mhos 160 - None None - -
02/25/2017 15:52 Ice Watch 27.9F - 31F - 95 - - - - 1 mhos 146 - None None - -
02/25/2017 15:42 Ice Watch 27.0F - 31F - 95 - - - - 1 mhos 131 - None None - -
02/25/2017 15:41 Ice Watch 27.1F - 31F - 95 - - - - 1 mhos 131 - None None - -
02/25/2017 15:32 Ice Watch 28.2F - 31F - 95 - - - - 1 mhos 144 - None None - -
02/25/2017 15:26 Ice Watch 28.4F - 31F - 95 - - - - 1 mhos 131 - None None - -
02/25/2017 15:22 Ice Watch 28.2F - 31F - 95 - - - - 1 mhos 128 - None None - -
02/25/2017 15:12 Ice Watch 28.8F - 31F - 95 - - - - 1 mhos 127 - None None - -
02/25/2017 15:11 Ice Watch 28.8F - 31F - 95 - - - - 1 mhos 128 - None None - -
02/25/2017 15:02 Ice Watch 29.5F - 31F - 95 - - - - 1 mhos 140 - None None - -
Date/Time
(MST)
Sf
Temp Chem Water Layer Surface Precipitation
Sfc Pvt Sub Frz Factor Pct Dpth DpthThk IcePct Cond Salin FI Type Intens Accum Rate
02/25/2017 14:56 Ice Watch 29.8F - 31F - 95 - - - - 1 mhos 179 - None None - -
02/25/2017 14:52 Ice Watch 30.4F - 31F - 95 - - - - 2 mhos 190 - None None - -
02/25/2017 14:42 Ice Watch 30.4F - 31F - 95 - - - - 1 mhos 151 - None None - -
02/25/2017 14:41 Ice Watch 30.6F - 31F - 95 - - - - 1 mhos 153 - None None - -
02/25/2017 14:32 Ice Watch 30.6F - 31F - 95 - - - - 2 mhos 212 - None None - -
02/25/2017 14:26 Ice Watch 30.6F - 31F - 95 - - - - 1 mhos 118 - None None - -
02/25/2017 14:22 Ice Watch 30.4F - 31F - 95 - - - - 1 mhos 128 - None None - -
02/25/2017 14:12 Ice Watch 30.9F - 31F - 95 - - - - 1 mhos 131 - None None - -
02/25/2017 14:11 Ice Watch 30.9F - 31F - 95 - - - - 1 mhos 151 - None None - -
02/25/2017 14:02 Ice Watch 30.7F - 31F - 95 - - - - 1 mhos 154 - None None - -
02/25/2017 13:56 Ice Watch 30.7F - 31F - 95 - - - - 2 mhos 168 - None None - -
02/25/2017 13:52 Ice Watch 30.9F - 31F - 95 - - - - 2 mhos 173 - None None - -
02/25/2017 13:42 Ice Watch 30.9F - 31F - 95 - - - - 2 mhos 223 - None None - -
02/25/2017 13:41 Ice Watch 30.9F - 31F - 95 - - - - 2 mhos 237 - None None - -
02/25/2017 13:32 Trace Moisture 33.1F - 31F - 95 - - - - 3 mhos 279 - None None - -
Date/Time
(MST)
Sf
Temp Chem Water Layer Surface Precipitation
Sfc Pvt Sub Frz Factor Pct Dpth DpthThk IcePct Cond Salin FI Type Intens Accum Rate
02/25/2017 13:26 Dry 33.4F - 31F - - - - - - 2 mhos 179 - None None - -
02/25/2017 13:22 Dry 34.9F - 31F - - - - - - 2 mhos 234 - None None - -
02/25/2017 13:12 Trace Moisture 35.2F - 31F - 95 - - - - 3 mhos 294 - None None - -
02/25/2017 13:11 Trace Moisture 35.1F - 31F - 95 - - - - 3 mhos 287 - None None - -
02/25/2017 13:02 Trace Moisture 37.6F - 31F - 5 - - - - 3 mhos 242 - None None - -
02/25/2017 12:56 Dry 36.0F - 31F - - - - - - 3 mhos 265 - None None - -
02/25/2017 12:52 Trace Moisture 34.9F - 31F - 5 - - - - 3 mhos 271 - None None - -
02/25/2017 12:42 Dry 34.9F - 31F - - - - - - 3 mhos 329 - None None - -
02/25/2017 12:41 Dry 34.3F - 31F - - - - - - 4 mhos 356 - None None - -
02/25/2017 12:32 Dry 35.2F - 31F - - - - - - 5 mhos 455 - None None - -
02/25/2017 12:26 Dry 32.7F - 31F - - - - - - 5 mhos 511 - None None - -
02/25/2017 12:21 Wet 33.4F - 31F 31F 5 2% 0.00 in - 0% 6 mhos 581 - None None - -
02/25/2017 12:11 Chemically Wet 32.0F - 31F 31F 95 4% 0.00 in - 0% 11 mhos 1120 - None None - -
02/25/2017 12:11 Wet 32.5F - 31F 31F 95 4% 0.00 in - 0% 11 mhos 1167 - None None - -
02/25/2017 12:01 Wet 33.1F - 31F 31F 95 4% 0.00 in - 0% 13 mhos 1284 - None None - -
Date/Time
(MST)
Sf
Temp Chem Water Layer Surface Precipitation
Sfc Pvt Sub Frz Factor Pct Dpth DpthThk IcePct Cond Salin FI Type Intens Accum Rate
02/25/2017 11:56 Wet 33.8F - 31F 30F 95 6% 0.00 in - 0% 17 mhos 1740 - None None - -
02/25/2017 11:51 Wet 35.1F - 31F 31F 95 4% 0.00 in - 0% 12 mhos 1179 - None None - -
02/25/2017 11:41 Wet 34.9F - 31F 31F 95 5% 0.00 in - 0% 14 mhos 1405 - None None - -
02/25/2017 11:41 Wet 34.9F - 31F 31F 95 4% 0.00 in - 0% 13 mhos 1326 - None None - -
02/25/2017 11:31 Wet 35.2F - 31F 31F 95 5% 0.00 in - 0% 16 mhos 1587 - None None - -
02/25/2017 11:26 Wet 36.3F - 31F 31F 95 4% 0.00 in - 0% 12 mhos 1146 - None None - -
02/25/2017 11:21 Wet 36.0F - 31F 31F 95 2% 0.00 in - 0% 6 mhos 588 - None None - -
02/25/2017 11:11 Wet 34.9F - 31F 31F 95 2% 0.00 in - 0% 7 mhos 728 - None None - -
02/25/2017 11:11 Wet 34.3F - 31F 31F 95 3% 0.00 in - 0% 8 mhos 757 - None None - -
02/25/2017 11:01 Chemically Wet 30.9F - 31F 31F 95 3% - - 64% 8 mhos 907 - None None - -
02/25/2017 10:56 Wet 32.5F - 31F 31F 95 3% 0.00 in - 0% 9 mhos 969 - None None - -
02/25/2017 10:51 Chemically Wet 31.1F - 31F 31F 95 3% - - 58% 9 mhos 926 - None None - -
02/25/2017 10:41 Chemically Wet 31.1F - 31F 31F 95 3% - - 56% 9 mhos 963 - None None - -
02/25/2017 10:41 Chemically Wet 30.9F - 31F 31F 95 4% - - 58% 10 mhos 1055 - None None - -
02/25/2017 10:31 Chemically Wet 29.3F - 31F 31F 95 3% - - 82% 8 mhos 994 - None None - -
Date/Time
(MST)
Sf
Temp Chem Water Layer Surface Precipitation
Sfc Pvt Sub Frz Factor Pct Dpth DpthThk IcePct Cond Salin FI Type Intens Accum Rate
02/25/2017 10:27 Chemically Wet 29.8F - 31F 31F 95 3% - - 78% 9 mhos 1024 - None None - -
02/25/2017 10:21 Chemically Wet 29.7F - 31F 31F 95 3% - - 80% 8 mhos 968 - None None - -
02/25/2017 10:11 Chemically Wet 31.6F - 31F 31F 95 3% 0.00 in - 0% 8 mhos 786 - None None - -
02/25/2017 10:11 Chemically Wet 31.5F - 32F 31F 95 2% - - 60% 6 mhos 601 - None None - -
02/25/2017 10:01 Chemically Wet 29.8F - 31F 31F 95 3% - - 83% 7 mhos 791 - None None - -
02/25/2017 09:56 Ice Warning 29.3F - 32F 31F 95 3% - - 86% 6 mhos 763 - None None - -
02/25/2017 09:51 Ice Warning 28.8F - 31F 31F 95 3% - - 87% 7 mhos 847 - None None - -
02/25/2017 09:41 Ice Warning 28.4F - 31F 31F 95 2% - - 92% 4 mhos 579 - None None - -
02/25/2017 09:41 Ice Warning 28.0F - 32F 32F 95 2% - - 93% 4 mhos 543 - None None - -
02/25/2017 09:31 Ice Warning 26.6F - 32F 32F 95 1% - - 97% 2 mhos 335 - None None - -
02/25/2017 09:26 Ice Warning 26.8F - 32F 32F 95 1% - - 97% 2 mhos 268 - None None - -
02/25/2017 09:21 Ice Warning 26.6F - 32F 32F 95 1% - - 98% 1 mhos 203 - None None - -
02/25/2017 09:11 Ice Watch 24.6F - 32F - 95 - - - - 1 mhos 143 - None None - -
02/25/2017 09:11 Ice Watch 24.6F - 32F - 95 - - - - 1 mhos 143 - None None - -
02/25/2017 09:01 Ice Watch 24.1F - 32F - 95 - - - - 1 mhos 162 - None None - -
Date/Time
(MST)
Sf
Temp Chem Water Layer Surface Precipitation
Sfc Pvt Sub Frz Factor Pct Dpth DpthThk IcePct Cond Salin FI Type Intens Accum Rate
02/25/2017 08:56 Ice Watch 23.9F - 32F - 95 - - - - 1 mhos 147 - None None - -
02/25/2017 08:50 Ice Watch 24.1F - 32F - 75 - - - - 1 mhos 168 - None None - -
02/25/2017 08:41 Ice Watch 23.9F - 32F - 85 - - - - 1 mhos 137 - None None - -
02/25/2017 08:40 Ice Watch 23.9F - 32F - 85 - - - - 1 mhos 137 - None None - -
02/25/2017 08:30 Ice Watch 23.5F - 32F - 70 - - - - 1 mhos 136 - None None - -
02/25/2017 08:26 Ice Watch 23.0F - 32F - 80 - - - - 1 mhos 139 - None None - -
02/25/2017 08:20 Ice Watch 22.8F - 32F - 75 - - - - 1 mhos 141 - None None - -
02/25/2017 08:11 Ice Watch 22.5F - 32F - 55 - - - - 1 mhos 141 - None None - -
02/25/2017 08:10 Ice Watch 22.5F - 32F - 55 - - - - 1 mhos 141 - None None - -
02/25/2017 08:00 Ice Watch 22.3F - 32F - 45 - - - - 1 mhos 139 - None None - -
02/25/2017 07:56 Ice Watch 22.3F - 32F - 60 - - - - 1 mhos 140 - None None - -
02/25/2017 07:50 Ice Watch 22.3F - 32F - 55 - - - - 1 mhos 139 - None None - -
02/25/2017 07:41 Ice Watch 22.3F - 32F - 40 - - - - 1 mhos 139 - None None - -
02/25/2017 07:40 Ice Watch 22.3F - 32F - 40 - - - - 1 mhos 139 - None None - -
02/25/2017 07:30 Ice Watch 22.5F - 32F - 35 - - - - 1 mhos 139 - None None - -
Date/Time
(MST)
Sf
Temp Chem Water Layer Surface Precipitation
Sfc Pvt Sub Frz Factor Pct Dpth DpthThk IcePct Cond Salin FI Type Intens Accum Rate
02/25/2017 07:26 Ice Watch 22.5F - 32F - 35 - - - - 1 mhos 140 - None None - -
02/25/2017 07:20 Ice Watch 22.5F - 32F - 35 - - - - 1 mhos 138 - None None - -
02/25/2017 07:11 Ice Watch 22.5F - 32F - 40 - - - - 1 mhos 143 - None None - -
02/25/2017 07:10 Ice Watch 22.5F - 32F - 40 - - - - 1 mhos 143 - None None - -
02/25/2017 07:00 Ice Watch 22.6F - 32F - 60 - - - - 1 mhos 140 - None None - -
02/25/2017 06:56 Ice Watch 22.6F - 32F - 75 - - - - 1 mhos 142 - None None - -
02/25/2017 06:50 Ice Watch 23.0F - 32F - 75 - - - - 1 mhos 140 - None None - -
02/25/2017 06:41 Ice Watch 23.4F - 32F - 85 - - - - 1 mhos 137 - None None - -
02/25/2017 06:40 Ice Watch 23.4F - 32F - 85 - - - - 1 mhos 140 - None None - -
02/25/2017 06:30 Ice Watch 23.2F - 32F - 90 - - - - 1 mhos 148 - None None - -
02/25/2017 06:26 Ice Watch 23.4F - 32F - 95 - - - - 1 mhos 147 - None None - -
02/25/2017 06:20 Ice Watch 23.5F - 32F - 75 - - - - 1 mhos 147 - None None - -
02/25/2017 06:11 Ice Watch 23.5F - 32F - 75 - - - - 1 mhos 146 - None None - -
02/25/2017 06:10 Ice Watch 23.5F - 32F - 75 - - - - 1 mhos 147 - None None - -
02/25/2017 06:00 Ice Watch 23.5F - 32F - 70 - - - - 1 mhos 147 - None None - -
Date/Time
(MST)
Sf
Temp Chem Water Layer Surface Precipitation
Sfc Pvt Sub Frz Factor Pct Dpth DpthThk IcePct Cond Salin FI Type Intens Accum Rate
02/25/2017 05:56 Ice Watch 23.5F - 32F - 80 - - - - 1 mhos 147 - None None - -
02/25/2017 05:50 Ice Watch 23.5F - 32F - 75 - - - - 1 mhos 146 - None None - -
02/25/2017 05:41 Ice Watch 23.4F - 32F - 70 - - - - 1 mhos 146 - None None - -
02/25/2017 05:40 Ice Watch 23.4F - 32F - 65 - - - - 1 mhos 146 - None None - -
02/25/2017 05:30 Ice Watch 23.4F - 32F - 75 - - - - 1 mhos 144 - None None - -
02/25/2017 05:26 Ice Watch 23.2F - 32F - 75 - - - - 1 mhos 145 - None None - -
02/25/2017 05:19 Ice Watch 23.5F - 32F - 70 - - - - 1 mhos 142 - None None - -
02/25/2017 05:11 Ice Watch 23.7F - 32F - 80 - - - - 1 mhos 144 - None None - -
02/25/2017 05:09 Ice Watch 23.7F - 32F - 80 - - - - 1 mhos 142 - None None - -
02/25/2017 04:59 Ice Watch 23.7F - 32F - 80 - - - - 1 mhos 144 - None None - -
02/25/2017 04:56 Ice Watch 23.7F - 32F - 75 - - - - 1 mhos 142 - None None - -
02/25/2017 04:49 Ice Watch 23.7F - 32F - 95 - - - - 1 mhos 146 - None None - -
02/25/2017 04:41 Ice Watch 23.5F - 32F - 95 - - - - 1 mhos 159 - None None - -
02/25/2017 04:39 Ice Watch 23.5F - 32F - 95 - - - - 1 mhos 158 - None None - -
02/25/2017 04:29 Ice Watch 23.5F - 32F - 50 - - - - 1 mhos 154 - None None - -
Date/Time
(MST)
Sf
Temp Chem Water Layer Surface Precipitation
Sfc Pvt Sub Frz Factor Pct Dpth DpthThk IcePct Cond Salin FI Type Intens Accum Rate
02/25/2017 04:26 Ice Watch 23.5F - 32F - 95 - - - - 1 mhos 174 - None None - -
02/25/2017 04:19 Ice Watch 23.5F - 32F - 95 - - - - 1 mhos 171 - None None - -
02/25/2017 04:12 Ice Watch 23.5F - 32F - 95 - - - - 1 mhos 177 - None None - -
02/25/2017 04:09 Ice Watch 23.7F - 32F - 95 - - - - 1 mhos 172 - None None - -
02/25/2017 03:59 Ice Watch 23.7F - 32F - 95 - - - - 1 mhos 203 - None None - -
02/25/2017 03:56 Ice Watch 24.1F - 32F - 95 - - - - 1 mhos 205 - None None - -
02/25/2017 03:49 Ice Watch 24.1F - 32F - 80 - - - - 1 mhos 211 - None None - -
02/25/2017 03:41 Ice Watch 24.1F - 32F - 80 - - - - 1 mhos 208 - None None - -
02/25/2017 03:39 Ice Watch 24.1F - 32F - 80 - - - - 1 mhos 208 - None None - -
02/25/2017 03:29 Ice Watch 24.1F - 32F - 75 - - - - 1 mhos 207 - None None - -
02/25/2017 03:26 Ice Watch 24.3F - 32F - 75 - - - - 1 mhos 202 - None None - -
02/25/2017 03:19 Ice Watch 24.6F - 32F - 70 - - - - 1 mhos 196 - None None - -
02/25/2017 03:11 Ice Watch 24.3F - 32F - 70 - - - - 1 mhos 201 - None None - -
02/25/2017 03:09 Ice Watch 24.3F - 32F - 70 - - - - 1 mhos 202 - None None - -
02/25/2017 02:59 Ice Watch 24.4F - 32F - 95 - - - - 1 mhos 241 - None None - -
Change End Date:

Copyright © 1998-2015 Vaisala, Inc.
All Rights Reserved
Send comments about the data to:
SCAN Web ® is a registered trademark of Vaisala, Inc.
SCAN Web Version 6.0